Time,TemperatureF,DewpointF,PressureIn,WindDirection,WindDirectionDegrees,WindSpeedMPH,WindSpeedGustMPH,Humidity,HourlyPrecipIn,Conditions,Clouds,dailyrainin,SoftwareType,DateUTC
2013-04-17 00:01:00,63.1,16.1,29.43,SE,142,5.0,5.0,16,0.00,,,0.00,Wunderground v.1.15,2013-04-17 06:01:00,
2013-04-17 00:11:00,61.4,16.1,29.43,SSE,163,6.0,7.0,17,0.00,,,0.00,Wunderground v.1.15,2013-04-17 06:11:00,
2013-04-17 00:16:00,61.7,16.4,29.42,South,185,5.0,7.0,17,0.00,,,0.00,Wunderground v.1.15,2013-04-17 06:16:00,
2013-04-17 00:36:00,61.0,15.8,29.43,South,172,6.0,7.0,17,0.00,,,0.00,Wunderground v.1.15,2013-04-17 06:36:00,
2013-04-17 00:46:00,60.0,15.0,29.43,South,190,6.0,9.0,17,0.00,,,0.00,Wunderground v.1.15,2013-04-17 06:46:00,
2013-04-17 00:51:00,60.4,15.3,29.43,SSE,158,6.0,11.0,17,0.00,,,0.00,Wunderground v.1.15,2013-04-17 06:51:00,
2013-04-17 01:01:00,61.9,17.9,29.42,SSW,200,10.0,10.0,18,0.00,,,0.00,Wunderground v.1.15,2013-04-17 07:01:00,
2013-04-17 01:11:00,62.4,18.3,29.42,SW,216,11.0,19.0,18,0.00,,,0.00,Wunderground v.1.15,2013-04-17 07:11:00,
2013-04-17 01:21:00,62.7,18.5,29.42,SSW,194,13.0,13.0,18,0.00,,,0.00,Wunderground v.1.15,2013-04-17 07:21:00,
2013-04-17 01:31:00,62.0,19.2,29.43,SSW,200,9.0,9.0,19,0.00,,,0.00,Wunderground v.1.15,2013-04-17 07:31:00,
2013-04-17 01:46:00,61.8,19.0,29.43,SSE,155,9.0,10.0,19,0.00,,,0.00,Wunderground v.1.15,2013-04-17 07:46:00,
2013-04-17 01:51:00,61.6,20.1,29.43,SSW,198,8.0,8.0,20,0.00,,,0.00,Wunderground v.1.15,2013-04-17 07:51:00,
2013-04-17 01:56:00,60.8,17.0,29.42,SE,127,7.0,8.0,18,0.00,,,0.00,Wunderground v.1.15,2013-04-17 07:56:00,
2013-04-17 02:06:00,59.0,17.9,29.42,SSE,163,7.0,7.0,20,0.00,,,0.00,Wunderground v.1.15,2013-04-17 08:06:00,
2013-04-17 02:16:00,59.0,17.9,29.42,South,177,5.0,7.0,20,0.00,,,0.00,Wunderground v.1.15,2013-04-17 08:16:00,
2013-04-17 02:21:00,59.0,16.7,29.42,SE,136,7.0,11.0,19,0.00,,,0.00,Wunderground v.1.15,2013-04-17 08:21:00,
2013-04-17 02:31:00,59.0,17.9,29.42,SE,140,9.0,9.0,20,0.00,,,0.00,Wunderground v.1.15,2013-04-17 08:31:00,
2013-04-17 02:36:00,58.9,17.8,29.42,SSE,153,8.0,10.0,20,0.00,,,0.00,Wunderground v.1.15,2013-04-17 08:36:00,
2013-04-17 02:46:00,58.5,17.5,29.42,SSE,158,7.0,8.0,20,0.00,,,0.00,Wunderground v.1.15,2013-04-17 08:46:00,
2013-04-17 02:56:00,57.6,15.6,29.42,South,169,6.0,6.0,19,0.00,,,0.00,Wunderground v.1.15,2013-04-17 08:56:00,
2013-04-17 03:01:00,58.0,15.9,29.43,SW,215,7.0,7.0,19,0.00,,,0.00,Wunderground v.1.15,2013-04-17 09:01:00,
2013-04-17 03:11:00,59.0,17.9,29.41,SSE,165,8.0,11.0,20,0.00,,,0.00,Wunderground v.1.15,2013-04-17 09:11:00,
2013-04-17 03:16:00,59.0,17.9,29.42,South,178,10.0,11.0,20,0.00,,,0.00,Wunderground v.1.15,2013-04-17 09:16:00,
2013-04-17 03:26:00,59.0,16.7,29.42,SSW,202,10.0,11.0,19,0.00,,,0.00,Wunderground v.1.15,2013-04-17 09:26:00,
2013-04-17 03:36:00,58.5,16.3,29.42,SE,144,7.0,10.0,19,0.00,,,0.00,Wunderground v.1.15,2013-04-17 09:36:00,
2013-04-17 03:41:00,57.5,15.5,29.42,SSE,162,8.0,8.0,19,0.00,,,0.00,Wunderground v.1.15,2013-04-17 09:41:00,
2013-04-17 03:51:00,57.1,16.3,29.42,SSE,155,9.0,9.0,20,0.00,,,0.00,Wunderground v.1.15,2013-04-17 09:51:00,
2013-04-17 03:56:00,57.0,17.4,29.41,SSE,155,10.0,10.0,21,0.00,,,0.00,Wunderground v.1.15,2013-04-17 09:56:00,
2013-04-17 04:06:00,56.7,14.8,29.41,SSE,150,9.0,11.0,19,0.00,,,0.00,Wunderground v.1.15,2013-04-17 10:06:00,
2013-04-17 04:11:00,56.6,15.9,29.41,SE,129,10.0,11.0,20,0.00,,,0.00,Wunderground v.1.15,2013-04-17 10:11:00,
2013-04-17 04:21:00,56.3,15.7,29.41,SSE,147,9.0,9.0,20,0.00,,,0.00,Wunderground v.1.15,2013-04-17 10:21:00,
2013-04-17 04:26:00,56.2,15.6,29.41,SSE,151,8.0,9.0,20,0.00,,,0.00,Wunderground v.1.15,2013-04-17 10:26:00,
2013-04-17 04:36:00,56.0,15.4,29.41,SSE,148,7.0,9.0,20,0.00,,,0.00,Wunderground v.1.15,2013-04-17 10:36:00,
2013-04-17 04:41:00,55.9,15.3,29.41,SSE,150,9.0,11.0,20,0.00,,,0.00,Wunderground v.1.15,2013-04-17 10:41:00,
2013-04-17 04:51:00,55.8,16.4,29.41,SSE,153,9.0,9.0,21,0.00,,,0.00,Wunderground v.1.15,2013-04-17 10:51:00,
2013-04-17 05:01:00,55.8,16.4,29.41,SSE,157,8.0,8.0,21,0.00,,,0.00,Wunderground v.1.15,2013-04-17 11:01:00,
2013-04-17 05:06:00,55.8,16.4,29.41,SSE,167,7.0,8.0,21,0.00,,,0.00,Wunderground v.1.15,2013-04-17 11:06:00,
2013-04-17 05:16:00,55.5,16.1,29.41,South,173,5.0,7.0,21,0.00,,,0.00,Wunderground v.1.15,2013-04-17 11:16:00,
2013-04-17 05:21:00,55.4,17.1,29.41,SE,130,5.0,8.0,22,0.00,,,0.00,Wunderground v.1.15,2013-04-17 11:21:00,
2013-04-17 05:26:00,55.2,17.0,29.41,SSE,161,6.0,8.0,22,0.00,,,0.00,Wunderground v.1.15,2013-04-17 11:26:00,
2013-04-17 05:36:00,54.8,16.6,29.41,SSE,149,6.0,7.0,22,0.00,,,0.00,Wunderground v.1.15,2013-04-17 11:36:00,
2013-04-17 05:46:00,54.5,16.4,29.41,SE,142,6.0,6.0,22,0.00,,,0.00,Wunderground v.1.15,2013-04-17 11:46:00,
2013-04-17 06:01:00,54.4,16.3,29.41,South,178,6.0,6.0,22,0.00,,,0.00,Wunderground v.1.15,2013-04-17 12:01:00,
2013-04-17 06:11:00,54.0,16.0,29.41,SSE,167,4.0,4.0,22,0.00,,,0.00,Wunderground v.1.15,2013-04-17 12:11:00,
2013-04-17 06:16:00,53.9,15.9,29.41,SSE,165,4.0,5.0,22,0.00,,,0.00,Wunderground v.1.15,2013-04-17 12:16:00,
2013-04-17 06:26:00,53.5,16.6,29.41,SSE,149,6.0,6.0,23,0.00,,,0.00,Wunderground v.1.15,2013-04-17 12:26:00,
2013-04-17 06:31:00,53.3,16.4,29.41,SSE,149,6.0,9.0,23,0.00,,,0.00,Wunderground v.1.15,2013-04-17 12:31:00,
2013-04-17 06:41:00,52.9,16.1,29.41,SE,129,6.0,8.0,23,0.00,,,0.00,Wunderground v.1.15,2013-04-17 12:41:00,
2013-04-17 06:46:00,52.7,15.9,29.42,SSE,155,6.0,8.0,23,0.00,,,0.00,Wunderground v.1.15,2013-04-17 12:46:00,
2013-04-17 06:56:00,52.5,16.7,29.42,SSE,150,6.0,6.0,24,0.00,,,0.00,Wunderground v.1.15,2013-04-17 12:56:00,
2013-04-17 07:01:00,52.3,16.5,29.42,SSE,155,6.0,8.0,24,0.00,,,0.00,Wunderground v.1.15,2013-04-17 13:01:00,
2013-04-17 07:11:00,52.4,16.6,29.42,SSE,161,7.0,7.0,24,0.00,,,0.00,Wunderground v.1.15,2013-04-17 13:11:00,
2013-04-17 07:21:00,53.0,17.1,29.43,SSE,155,6.0,7.0,24,0.00,,,0.00,Wunderground v.1.15,2013-04-17 13:21:00,
2013-04-17 07:31:00,53.7,17.7,29.43,SSE,160,5.0,5.0,24,0.00,,,0.00,Wunderground v.1.15,2013-04-17 13:31:00,
2013-04-17 07:36:00,54.0,18.0,29.44,SSE,148,4.0,5.0,24,0.00,,,0.00,Wunderground v.1.15,2013-04-17 13:36:00,
2013-04-17 07:41:00,54.2,18.1,29.44,South,190,4.0,4.0,24,0.00,,,0.00,Wunderground v.1.15,2013-04-17 13:41:00,
2013-04-17 07:51:00,54.9,18.7,29.45,SSE,168,3.0,5.0,24,0.00,,,0.00,Wunderground v.1.15,2013-04-17 13:51:00,
2013-04-17 08:01:00,55.1,18.9,29.45,SSW,204,4.0,6.0,24,0.00,,,0.00,Wunderground v.1.15,2013-04-17 14:01:00,
2013-04-17 08:11:00,55.2,19.0,29.46,SW,214,4.0,4.0,24,0.00,,,0.00,Wunderground v.1.15,2013-04-17 14:11:00,
2013-04-17 08:16:00,55.5,20.2,29.46,SSE,152,3.0,4.0,25,0.00,,,0.00,Wunderground v.1.15,2013-04-17 14:16:00,
2013-04-17 08:26:00,56.1,23.4,29.46,SW,219,3.0,9.0,28,0.00,,,0.00,Wunderground v.1.15,2013-04-17 14:26:00,
2013-04-17 08:36:00,56.0,28.0,29.46,SW,229,7.0,7.0,34,0.00,,,0.00,Wunderground v.1.15,2013-04-17 14:36:00,
2013-04-17 08:46:00,56.4,28.3,29.46,SW,230,6.0,12.0,34,0.00,,,0.00,Wunderground v.1.15,2013-04-17 14:46:00,
2013-04-17 08:51:00,56.0,28.0,29.46,WSW,252,8.0,8.0,34,0.00,,,0.00,Wunderground v.1.15,2013-04-17 14:51:00,
2013-04-17 08:56:00,55.8,27.8,29.46,WNW,298,8.0,8.0,34,0.00,,,0.00,Wunderground v.1.15,2013-04-17 14:56:00,
2013-04-17 09:06:00,56.3,28.3,29.46,West,263,6.0,10.0,34,0.00,,,0.00,Wunderground v.1.15,2013-04-17 15:06:00,
2013-04-17 09:16:00,56.4,28.3,29.46,West,263,8.0,8.0,34,0.00,,,0.00,Wunderground v.1.15,2013-04-17 15:16:00,
2013-04-17 09:21:00,56.9,28.1,29.46,WNW,284,7.0,7.0,33,0.00,,,0.00,Wunderground v.1.15,2013-04-17 15:21:00,
2013-04-17 09:31:00,57.8,28.1,29.45,WNW,296,6.0,6.0,32,0.00,,,0.00,Wunderground v.1.15,2013-04-17 15:31:00,
2013-04-17 09:41:00,57.6,27.9,29.44,West,276,8.0,12.0,32,0.00,,,0.00,Wunderground v.1.15,2013-04-17 15:41:00,
2013-04-17 09:46:00,57.4,27.7,29.44,WNW,298,8.0,12.0,32,0.00,,,0.00,Wunderground v.1.15,2013-04-17 15:46:00,
2013-04-17 09:56:00,56.4,27.6,29.44,WSW,257,8.0,10.0,33,0.00,,,0.00,Wunderground v.1.15,2013-04-17 15:56:00,
2013-04-17 10:11:00,56.9,27.3,29.44,South,175,8.0,8.0,32,0.00,,,0.00,Wunderground v.1.15,2013-04-17 16:11:00,
2013-04-17 10:21:00,56.7,27.1,29.44,WSW,255,8.0,8.0,32,0.00,,,0.00,Wunderground v.1.15,2013-04-17 16:21:00,
2013-04-17 10:26:00,56.7,27.1,29.44,West,273,8.0,8.0,32,0.00,,,0.00,Wunderground v.1.15,2013-04-17 16:26:00,
2013-04-17 10:36:00,56.9,26.5,29.44,WSW,250,6.0,9.0,31,0.00,,,0.00,Wunderground v.1.15,2013-04-17 16:36:00,
2013-04-17 10:46:00,57.1,26.7,29.44,West,277,7.0,7.0,31,0.00,,,0.00,Wunderground v.1.15,2013-04-17 16:46:00,
2013-04-17 11:01:00,58.2,26.9,29.43,WSW,242,5.0,5.0,30,0.00,,,0.00,Wunderground v.1.15,2013-04-17 17:01:00,
2013-04-17 11:11:00,58.6,26.4,29.43,West,269,7.0,7.0,29,0.00,,,0.00,Wunderground v.1.15,2013-04-17 17:11:00,
2013-04-17 11:21:00,58.1,26.0,29.43,NW,305,8.0,17.0,29,0.00,,,0.00,Wunderground v.1.15,2013-04-17 17:21:00,
2013-04-17 11:36:00,58.6,26.4,29.43,WSW,257,7.0,8.0,29,0.00,,,0.00,Wunderground v.1.15,2013-04-17 17:36:00,
2013-04-17 11:41:00,57.7,26.4,29.43,West,267,9.0,9.0,30,0.00,,,0.00,Wunderground v.1.15,2013-04-17 17:41:00,
2013-04-17 11:51:00,57.7,26.4,29.43,WSW,252,6.0,6.0,30,0.00,,,0.00,Wunderground v.1.15,2013-04-17 17:51:00,
2013-04-17 12:01:00,57.5,26.3,29.42,West,259,7.0,7.0,30,0.00,,,0.00,Wunderground v.1.15,2013-04-17 18:01:00,
2013-04-17 12:06:00,58.4,26.2,29.42,WSW,243,5.0,7.0,29,0.00,,,0.00,Wunderground v.1.15,2013-04-17 18:06:00,
2013-04-17 12:16:00,58.8,26.6,29.42,WSW,244,7.0,7.0,29,0.00,,,0.00,Wunderground v.1.15,2013-04-17 18:16:00,
2013-04-17 12:26:00,59.1,26.8,29.41,WNW,300,6.0,8.0,29,0.00,,,0.00,Wunderground v.1.15,2013-04-17 18:26:00,
2013-04-17 12:31:00,59.5,26.3,29.41,WNW,301,6.0,6.0,28,0.00,,,0.00,Wunderground v.1.15,2013-04-17 18:31:00,
2013-04-17 12:36:00,59.0,26.8,29.41,WNW,290,7.0,7.0,29,0.00,,,0.00,Wunderground v.1.15,2013-04-17 18:36:00,
2013-04-17 12:46:00,59.0,26.8,29.40,WSW,244,6.0,11.0,29,0.00,,,0.00,Wunderground v.1.15,2013-04-17 18:46:00,
2013-04-17 12:56:00,59.5,26.3,29.39,NW,318,9.0,9.0,28,0.00,,,0.00,Wunderground v.1.15,2013-04-17 18:56:00,
2013-04-17 13:06:00,60.5,26.3,29.39,WNW,290,7.0,13.0,27,0.00,,,0.00,Wunderground v.1.15,2013-04-17 19:06:00,
2013-04-17 13:16:00,60.8,26.6,29.39,West,275,7.0,13.0,27,0.00,,,0.00,Wunderground v.1.15,2013-04-17 19:16:00,
2013-04-17 13:21:00,60.7,26.5,29.39,WNW,298,10.0,10.0,27,0.00,,,0.00,Wunderground v.1.15,2013-04-17 19:21:00,
2013-04-17 13:26:00,60.4,26.2,29.39,West,275,10.0,10.0,27,0.00,,,0.00,Wunderground v.1.15,2013-04-17 19:26:00,
2013-04-17 13:36:00,59.4,26.2,29.39,West,271,8.0,16.0,28,0.00,,,0.00,Wunderground v.1.15,2013-04-17 19:36:00,
2013-04-17 13:46:00,59.0,25.9,29.39,West,280,8.0,10.0,28,0.00,,,0.00,Wunderground v.1.15,2013-04-17 19:46:00,
2013-04-17 13:51:00,59.0,25.9,29.39,WNW,282,8.0,15.0,28,0.00,,,0.00,Wunderground v.1.15,2013-04-17 19:51:00,
2013-04-17 14:01:00,58.2,26.1,29.39,West,265,10.0,10.0,29,0.00,,,0.00,Wunderground v.1.15,2013-04-17 20:01:00,
2013-04-17 14:11:00,57.9,25.8,29.40,WSW,250,9.0,12.0,29,0.00,,,0.00,Wunderground v.1.15,2013-04-17 20:11:00,
2013-04-17 14:16:00,57.7,25.6,29.40,WNW,294,9.0,12.0,29,0.00,,,0.00,Wunderground v.1.15,2013-04-17 20:16:00,
2013-04-17 14:26:00,53.1,27.5,29.42,NNW,347,10.0,15.0,37,0.00,,,0.00,Wunderground v.1.15,2013-04-17 20:26:00,
2013-04-17 14:36:00,51.7,27.5,29.42,NNW,344,13.0,17.0,39,0.00,,,0.00,Wunderground v.1.15,2013-04-17 20:36:00,
2013-04-17 14:41:00,51.3,27.2,29.42,NNW,337,13.0,13.0,39,0.00,,,0.00,Wunderground v.1.15,2013-04-17 20:41:00,
2013-04-17 14:51:00,50.6,26.5,29.42,North,5,12.0,15.0,39,0.00,,,0.00,Wunderground v.1.15,2013-04-17 20:51:00,
2013-04-17 14:56:00,50.3,26.9,29.43,North,360,12.0,15.0,40,0.00,,,0.00,Wunderground v.1.15,2013-04-17 20:56:00,
2013-04-17 15:01:00,50.7,26.6,29.43,NNW,341,11.0,11.0,39,0.00,,,0.00,Wunderground v.1.15,2013-04-17 21:01:00,
2013-04-17 15:21:00,50.3,25.0,29.44,NNE,33,9.0,9.0,37,0.00,,,0.00,Wunderground v.1.15,2013-04-17 21:21:00,
2013-04-17 15:36:00,51.0,25.0,29.44,NNE,23,8.0,12.0,36,0.00,,,0.00,Wunderground v.1.15,2013-04-17 21:36:00,
2013-04-17 15:51:00,51.1,25.0,29.44,ENE,72,4.0,4.0,36,0.00,,,0.00,Wunderground v.1.15,2013-04-17 21:51:00,
2013-04-17 15:56:00,51.4,23.2,29.44,WNW,288,4.0,7.0,33,0.00,,,0.00,Wunderground v.1.15,2013-04-17 21:56:00,
2013-04-17 16:06:00,52.2,21.7,29.44,West,275,6.0,7.0,30,0.00,,,0.00,Wunderground v.1.15,2013-04-17 22:06:00,
2013-04-17 16:16:00,52.1,21.6,29.46,NW,315,5.0,5.0,30,0.00,,,0.00,Wunderground v.1.15,2013-04-17 22:16:00,
2013-04-17 16:26:00,52.7,19.6,29.44,North,355,4.0,25.0,27,0.00,,,0.00,Wunderground v.1.15,2013-04-17 22:26:00,
2013-04-17 16:36:00,48.2,24.4,29.48,NNW,337,19.0,26.0,39,0.00,,,0.00,Wunderground v.1.15,2013-04-17 22:36:00,
2013-04-17 16:41:00,47.7,23.9,29.48,NNW,333,18.0,18.0,39,0.00,,,0.00,Wunderground v.1.15,2013-04-17 22:41:00,
2013-04-17 16:51:00,47.0,24.5,29.50,NW,318,16.0,16.0,41,0.00,,,0.00,Wunderground v.1.15,2013-04-17 22:51:00,
2013-04-17 16:56:00,46.7,24.2,29.50,North,355,13.0,16.0,41,0.00,,,0.00,Wunderground v.1.15,2013-04-17 22:56:00,
2013-04-17 17:01:00,46.6,24.1,29.50,NNW,331,13.0,15.0,41,0.00,,,0.00,Wunderground v.1.15,2013-04-17 23:01:00,
2013-04-17 17:11:00,47.3,22.9,29.51,WNW,302,13.0,22.0,38,0.00,,,0.00,Wunderground v.1.15,2013-04-17 23:11:00,
2013-04-17 17:16:00,47.5,23.1,29.52,WNW,287,13.0,22.0,38,0.00,,,0.00,Wunderground v.1.15,2013-04-17 23:16:00,
2013-04-17 17:26:00,48.0,22.9,29.52,WNW,301,15.0,19.0,37,0.00,,,0.00,Wunderground v.1.15,2013-04-17 23:26:00,
2013-04-17 17:36:00,48.3,22.5,29.53,WNW,302,17.0,19.0,36,0.00,,,0.00,Wunderground v.1.15,2013-04-17 23:36:00,
2013-04-17 17:41:00,48.2,22.5,29.53,NW,304,16.0,16.0,36,0.00,,,0.00,Wunderground v.1.15,2013-04-17 23:41:00,
2013-04-17 17:51:00,48.3,21.9,29.54,WNW,292,15.0,15.0,35,0.00,,,0.00,Wunderground v.1.15,2013-04-17 23:51:00,
2013-04-17 18:01:00,48.1,22.4,29.55,NW,306,16.0,19.0,36,0.00,,,0.00,Wunderground v.1.15,2013-04-18 00:01:00,
2013-04-17 18:11:00,47.4,22.4,29.56,NNW,329,18.0,18.0,37,0.00,,,0.00,Wunderground v.1.15,2013-04-18 00:11:00,
2013-04-17 18:21:00,47.3,22.9,29.57,NW,315,17.0,17.0,38,0.00,,,0.00,Wunderground v.1.15,2013-04-18 00:21:00,
2013-04-17 18:31:00,47.4,21.1,29.57,NW,317,18.0,18.0,35,0.00,,,0.00,Wunderground v.1.15,2013-04-18 00:31:00,
2013-04-17 18:41:00,47.3,19.6,29.58,NW,315,16.0,16.0,33,0.00,,,0.00,Wunderground v.1.15,2013-04-18 00:41:00,
2013-04-17 18:46:00,46.7,19.1,29.59,NNW,327,18.0,18.0,33,0.00,,,0.00,Wunderground v.1.15,2013-04-18 00:46:00,
2013-04-17 18:56:00,46.8,19.2,29.60,NW,315,13.0,17.0,33,0.00,,,0.00,Wunderground v.1.15,2013-04-18 00:56:00,
2013-04-17 19:01:00,46.4,18.8,29.60,NW,320,12.0,16.0,33,0.00,,,0.00,Wunderground v.1.15,2013-04-18 01:01:00,
2013-04-17 19:11:00,46.4,18.8,29.61,WNW,283,10.0,10.0,33,0.00,,,0.00,Wunderground v.1.15,2013-04-18 01:11:00,
2013-04-17 19:26:00,46.0,18.5,29.62,NW,319,9.0,13.0,33,0.00,,,0.00,Wunderground v.1.15,2013-04-18 01:26:00,
2013-04-17 19:36:00,45.9,17.7,29.63,North,355,12.0,12.0,32,0.00,,,0.00,Wunderground v.1.15,2013-04-18 01:36:00,
2013-04-17 19:51:00,45.8,17.6,29.64,NW,304,8.0,9.0,32,0.00,,,0.00,Wunderground v.1.15,2013-04-18 01:51:00,
2013-04-17 19:56:00,45.9,17.7,29.64,NW,318,6.0,12.0,32,0.00,,,0.00,Wunderground v.1.15,2013-04-18 01:56:00,
2013-04-17 20:06:00,45.9,18.4,29.64,SSW,209,5.0,5.0,33,0.00,,,0.00,Wunderground v.1.15,2013-04-18 02:06:00,
2013-04-17 20:11:00,45.8,18.3,29.65,West,263,5.0,5.0,33,0.00,,,0.00,Wunderground v.1.15,2013-04-18 02:11:00,
2013-04-17 20:21:00,45.6,18.1,29.66,WNW,290,2.0,5.0,33,0.00,,,0.00,Wunderground v.1.15,2013-04-18 02:21:00,
2013-04-17 20:31:00,45.4,17.2,29.67,WSW,255,3.0,4.0,32,0.00,,,0.00,Wunderground v.1.15,2013-04-18 02:31:00,
2013-04-17 20:36:00,45.4,17.2,29.67,West,275,4.0,4.0,32,0.00,,,0.00,Wunderground v.1.15,2013-04-18 02:36:00,
2013-04-17 20:41:00,45.3,16.4,29.68,NW,311,6.0,16.0,31,0.00,,,0.00,Wunderground v.1.15,2013-04-18 02:41:00,
2013-04-17 20:51:00,45.0,15.4,29.69,NW,325,11.0,16.0,30,0.00,,,0.00,Wunderground v.1.15,2013-04-18 02:51:00,
2013-04-17 21:01:00,44.4,15.6,29.71,NW,304,13.0,14.0,31,0.00,,,0.00,Wunderground v.1.15,2013-04-18 03:01:00,
2013-04-17 21:06:00,44.0,16.7,29.71,WNW,294,12.0,14.0,33,0.00,,,0.00,Wunderground v.1.15,2013-04-18 03:06:00,
2013-04-17 21:21:00,43.3,17.4,29.72,WNW,295,9.0,9.0,35,0.00,,,0.00,Wunderground v.1.15,2013-04-18 03:21:00,
2013-04-17 21:31:00,43.0,17.8,29.73,NW,307,10.0,10.0,36,0.00,,,0.00,Wunderground v.1.15,2013-04-18 03:31:00,
2013-04-17 21:36:00,42.9,17.7,29.73,NNW,340,9.0,11.0,36,0.00,,,0.00,Wunderground v.1.15,2013-04-18 03:36:00,
2013-04-17 21:46:00,42.8,18.3,29.74,NW,304,7.0,10.0,37,0.00,,,0.00,Wunderground v.1.15,2013-04-18 03:46:00,
2013-04-17 21:51:00,42.9,18.4,29.75,NW,309,4.0,10.0,37,0.00,,,0.00,Wunderground v.1.15,2013-04-18 03:51:00,
2013-04-17 22:06:00,42.7,18.2,29.76,West,273,4.0,8.0,37,0.00,,,0.00,Wunderground v.1.15,2013-04-18 04:06:00,
2013-04-17 22:11:00,42.6,18.1,29.76,WNW,286,3.0,3.0,37,0.00,,,0.00,Wunderground v.1.15,2013-04-18 04:11:00,
2013-04-17 22:16:00,42.5,18.0,29.77,NW,309,3.0,3.0,37,0.00,,,0.00,Wunderground v.1.15,2013-04-18 04:16:00,
2013-04-17 22:21:00,42.4,18.6,29.77,NW,308,2.0,2.0,38,0.00,,,0.00,Wunderground v.1.15,2013-04-18 04:21:00,
2013-04-17 22:31:00,42.1,18.3,29.77,WNW,302,1.0,1.0,38,0.00,,,0.00,Wunderground v.1.15,2013-04-18 04:31:00,
2013-04-17 22:41:00,41.9,18.7,29.78,SSW,193,1.0,1.0,39,0.00,,,0.00,Wunderground v.1.15,2013-04-18 04:41:00,
2013-04-17 22:51:00,41.8,18.6,29.78,SW,218,1.0,1.0,39,0.00,,,0.00,Wunderground v.1.15,2013-04-18 04:51:00,
2013-04-17 23:01:00,41.7,18.5,29.78,WSW,257,1.0,1.0,39,0.00,,,0.00,Wunderground v.1.15,2013-04-18 05:01:00,
2013-04-17 23:06:00,41.5,18.9,29.79,WSW,242,1.0,1.0,40,0.00,,,0.00,Wunderground v.1.15,2013-04-18 05:06:00,
2013-04-17 23:11:00,41.3,18.8,29.79,WSW,250,0.0,0.0,40,0.00,,,0.00,Wunderground v.1.15,2013-04-18 05:11:00,
2013-04-17 23:21:00,41.0,18.5,29.79,WNW,288,0.0,0.0,40,0.00,,,0.00,Wunderground v.1.15,2013-04-18 05:21:00,
2013-04-17 23:31:00,40.9,17.2,29.80,WNW,295,1.0,3.0,38,0.00,,,0.00,Wunderground v.1.15,2013-04-18 05:31:00,
2013-04-17 23:36:00,41.0,17.3,29.80,NNW,333,2.0,5.0,38,0.00,,,0.00,Wunderground v.1.15,2013-04-18 05:36:00,
2013-04-17 23:46:00,41.1,16.8,29.80,NNW,342,7.0,10.0,37,0.00,,,0.00,Wunderground v.1.15,2013-04-18 05:46:00,
2013-04-17 23:56:00,41.0,16.7,29.81,NW,311,7.0,9.0,37,0.00,,,0.00,Wunderground v.1.15,2013-04-18 05:56:00,